{"data":{"norad_id":68181,"epoch":"2026-09-19T21:33:01.413792Z","epoch_age_seconds":107805,"freshness":"FRESH","line1":"1 68181U 26050Q   26262.89793303  .00022278  00000+0  66827-3 0  9999","line2":"2 68181  53.1595  80.6776 0000786  74.7037 285.4053 15.34412296 30475","mean_motion":15.34412296,"eccentricity":7.86e-5,"inclination_deg":53.1595,"raan_deg":80.6776,"arg_perigee_deg":74.7037,"mean_anomaly_deg":285.4053,"bstar":0.00066827,"rev_number":3047,"period_min":93.847006033116,"perigee_km":462.12900697753,"apogee_km":463.20438131825,"semimajor_km":6840.8036941479,"source":"CELESTRAK","updated_at":"2026-09-20T09:00:43.801481Z"}}